Aduana, Mexico

11:30 AM on June 27, 2017 (GMT +0000)
Aduana

Weather History for 76590 - April, 2013

Change the Weather History Date:

Monday, April 8, 2013

  Actual Average Record
Temperature  
Mean Temperature 76 °F -  
Max Temperature 84 °F 86 °F - ()
Min Temperature 69 °F 69 °F - ()
Cooling Degree Days 12    
Growing Degree Days 26 (Base 50)    
Moisture  
Dew Point 67 °F    
Average Humidity 71    
Maximum Humidity 88    
Minimum Humidity 65    
Precipitation  
Precipitation 0.00 in - - ()
Sea Level Pressure  
Sea Level Pressure 29.96 in    
Wind  
Wind Speed 8 mph ()    
Max Wind Speed 20 mph    
Max Gust Speed -    
Visibility 7.0 miles    
Events      
T = Trace of Precipitation, MM = Missing Value Source: Averaged Metar Reports

Daily Weather History Graph

Daily Weather History Graph

Search for Another Location

Airport or City:

Trip Planner

Search our weather history database for the weather conditions in past years. The results will help you decide how hot, cold, wet, or windy it might be!

Date:

Astronomy

Apr. 08, 2013 Rise Set
Actual Time 11:34 AM UTC 12:04 AM UTC
Civil Twilight 11:11 AM UTC 12:26 AM UTC
Nautical Twilight 10:45 AM UTC 12:53 AM UTC
Astronomical Twilight 10:19 AM UTC 1:19 AM UTC
Moon 10:13 AM UTC (4/8) 10:45 PM UTC (4/8)
Length of Visible Light 13h 14m
Length of Day
12h 30m
Waning Crescent, 4% of the Moon is Illuminated
Apr 8
Waning Crescent
Apr 10
New
Apr 18
First Quarter
Apr 25
Full
May 2
Last Quarter

Hourly Weather History & Observations

Time (GMT) Temp. Heat Index Dew Point Humidity Pressure Visibility Wind Dir Wind Speed Gust Speed Precip Events Conditions
12:51 AM 77.0 °F - 64.4 °F 65% 29.97 in 7.0 mi East 9.2 mph - N/A   Mostly Cloudy
1:55 AM 75.2 °F - 64.4 °F 69% 29.98 in 7.0 mi ESE 5.8 mph - N/A   Scattered Clouds
1:59 AM 75.2 °F - 64.4 °F 69% 29.98 in 7.0 mi ESE 5.8 mph - N/A   Scattered Clouds
2:48 AM 75.2 °F - 64.4 °F 69% 29.98 in 7.0 mi ENE 9.2 mph - N/A   Scattered Clouds
3:47 AM 75.2 °F - 64.4 °F 69% 30.01 in 7.0 mi East 10.4 mph - N/A   Scattered Clouds
4:46 AM 75.2 °F - 64.4 °F 69% 30.00 in 7.0 mi East 9.2 mph - N/A   Scattered Clouds
5:45 AM 75.2 °F - 64.4 °F 69% 29.97 in 7.0 mi East 5.8 mph - N/A   Scattered Clouds
6:44 AM 73.4 °F - 64.4 °F 73% 29.95 in 7.0 mi ESE 5.8 mph - N/A   Partly Cloudy
7:43 AM 73.4 °F - 62.6 °F 69% 29.93 in 7.0 mi ESE 5.8 mph - N/A   Clear
8:42 AM 73.4 °F - 62.6 °F 69% 29.90 in 7.0 mi ESE 5.8 mph - N/A   Clear
9:41 AM 71.6 °F - 62.6 °F 73% 29.92 in 7.0 mi East 5.8 mph - N/A   Clear
10:41 AM 69.8 °F - 62.6 °F 78% 29.93 in 7.0 mi East 5.8 mph - N/A   Partly Cloudy
11:41 AM 69.8 °F - 60.8 °F 73% 29.92 in 7.0 mi ENE 5.8 mph - N/A   Scattered Clouds
12:41 PM 71.6 °F - 68.0 °F 88% 29.96 in 7.0 mi ESE 3.5 mph - N/A   Scattered Clouds
1:44 PM 78.8 °F - 68.0 °F 69% 29.97 in 7.0 mi ESE 9.2 mph - N/A   Mostly Cloudy
2:40 PM 80.6 °F 83.9 °F 69.8 °F 70% 29.99 in 7.0 mi ESE 10.4 mph - N/A   Mostly Cloudy
3:48 PM 80.6 °F 83.9 °F 69.8 °F 70% 30.01 in 7.0 mi SE 12.7 mph - N/A   Overcast
4:40 PM 82.4 °F 87.2 °F 71.6 °F 70% 29.99 in 7.0 mi ESE 11.5 mph - N/A   Mostly Cloudy
5:41 PM 82.4 °F 87.2 °F 71.6 °F 70% 29.98 in 7.0 mi ESE 13.8 mph - N/A   Mostly Cloudy
6:42 PM 84.2 °F 89.6 °F 71.6 °F 66% 29.94 in 7.0 mi ESE 15.0 mph - N/A   Mostly Cloudy
7:41 PM 82.4 °F 88.2 °F 73.4 °F 74% 29.92 in 7.0 mi SE 16.1 mph - N/A   Mostly Cloudy
8:43 PM 82.4 °F 87.2 °F 71.6 °F 70% 29.92 in 7.0 mi SE 19.6 mph - N/A   Scattered Clouds
9:41 PM 82.4 °F 87.2 °F 71.6 °F 70% 29.91 in 7.0 mi SE 19.6 mph - N/A   Scattered Clouds
10:42 PM 80.6 °F 84.6 °F 71.6 °F 74% 29.92 in 7.0 mi SE 13.8 mph - N/A   Scattered Clouds
11:46 PM 80.6 °F 85.4 °F 73.4 °F 79% 29.93 in 7.0 mi SE 12.7 mph - N/A   Scattered Clouds